GW4507 Weather Reports


time (UTC)temp
C
wind
direction
speed
KPH
gust
KPH
rain 1hr
cm
rain 24hr
cm
rain mn
cm
humidity
%
barometer
mb
20260504081510 7 222 0.0 4.8 0.00 0.00 0.00 78 1006.4
20260504050012 11 167 0.0 4.8 0.00 0.00 0.00 71 1007.7
20260504044516 12 169 1.6 6.4 0.00 0.00 0.00 68 1008.3
20260504043016 13 360 3.2 8.0 0.00 0.00 0.00 66 1008.5
20260504041523 13 299 0.0 3.2 0.00 0.00 0.00 66 1009.0
20260504040009 13 5 4.8 8.0 0.00 0.00 0.00 64 1009.3
20260504034518 15 264 8.0 27.4 0.00 0.00 0.00 55 1010.6
20260504033023 11 298 3.2 4.8 0.00 0.00 0.00 58 1009.5
20260504031520 12 103 0.0 0.0 0.00 0.00 0.00 51 1008.8
20260504030034 12 103 0.0 3.2 0.00 0.00 0.00 51 1008.8
20260504024512 12 103 0.0 3.2 0.00 0.00 0.00 52 1008.6
20260504023015 12 103 0.0 3.2 0.00 0.00 0.00 52 1008.3
20260504021519 13 103 0.0 0.0 0.00 0.00 0.00 48 1008.4
20260504020025 14 103 0.0 4.8 0.00 0.00 0.00 46 1008.5
20260504014531 15 103 0.0 3.2 0.00 0.00 0.00 42 1008.7
20260504013028 17 103 0.0 0.0 0.00 0.00 0.00 39 1008.9
20260504011512 18 103 0.0 4.8 0.00 0.00 0.00 36 1008.9
20260504010018 20 92 0.0 6.4 0.00 0.00 0.00 33 1009.3
20260504004524 21 126 3.2 11.3 0.00 0.00 0.00 30 1009.4
20260504003028 22 159 3.2 12.9 0.00 0.00 0.00 29 1009.6
20260504001512 22 90 4.8 9.7 0.00 0.00 0.00 28 1009.7
20260504000027 22 119 4.8 12.9 0.00 0.00 0.00 27 1009.7
20260503234524 22 222 4.8 11.3 0.00 0.00 0.00 28 1010.2
20260503233025 22 155 1.6 4.8 0.00 0.00 0.00 28 1010.4
20260503231542 21 360 6.4 12.9 0.00 0.00 0.00 28 1010.6
20260503230002 22 352 6.4 12.9 0.00 0.00 0.00 27 1010.7
20260503224503 22 9 6.4 12.9 0.00 0.00 0.00 27 1010.7
20260503223005 21 339 8.0 12.9 0.00 0.00 0.00 29 1010.9
20260503221508 22 293 4.8 14.5 0.00 0.00 0.00 28 1011.1
20260503220017 22 113 3.2 19.3 0.00 0.00 0.00 27 1011.1
20260503214503 22 9 4.8 17.7 0.00 0.00 0.00 28 1011.4
20260503213004 22 299 3.2 25.7 0.00 0.00 0.00 27 1011.6
20260503211513 21 254 3.2 20.9 0.00 0.00 0.00 28 1011.8
20260503210020 22 339 12.9 20.9 0.00 0.00 0.00 26 1011.9
20260503204518 22 160 4.8 14.5 0.00 0.00 0.00 27 1012.1
20260503203011 22 289 6.4 16.1 0.00 0.00 0.00 26 1012.2
20260503201507 22 69 9.7 16.1 0.00 0.00 0.00 27 1012.4
20260503200011 21 302 3.2 19.3 0.00 0.00 0.00 29 1012.9
20260503194519 21 346 3.2 20.9 0.00 0.00 0.00 27 1013.0
20260503193020 21 316 8.0 20.9 0.00 0.00 0.00 28 1013.1
20260503191504 20 322 3.2 17.7 0.00 0.00 0.00 29 1013.1
20260503190006 21 225 8.0 14.5 0.00 0.00 0.00 29 1013.3
20260503184513 21 352 12.9 16.1 0.00 0.00 0.00 29 1013.5
20260503183020 20 157 1.6 19.3 0.00 0.00 0.00 29 1013.7
20260503181519 20 322 11.3 20.9 0.00 0.00 0.00 32 1013.9
20260503180009 20 5 14.5 20.9 0.00 0.00 0.00 29 1014.3
20260503174534 19 265 8.0 20.9 0.00 0.00 0.00 32 1014.5
20260503173016 20 24 12.9 19.3 0.00 0.00 0.00 30 1014.8
20260503171522 20 329 9.7 19.3 0.00 0.00 0.00 31 1014.9